Home > Weather > Sarasota > Past weeks

Flag for USA Weather for the Past 2 Weeks in Sarasota, Florida, USA

Now
73 °F

Clear.


Feels Like: 76 °F
Forecast: 71 / 80 °F
Wind: 14 mph from Northwest

Location: Sarasota-Bradenton International Airport

Current Time: May 5, 2016 at 3:32:02 AM

Latest Report: May 5, 2016 at 2:53 AM


Visibility: 10 mi

Pressure: 29.74 "Hg

Humidity: 59%

Dew Point: 58 °F

Location of SarasotaLocation

Historic Weather in Sarasota — Graph

°F

Sarasota Temperature Yesterday

Maximum temperature yesterday: 79 °F (at 12:53 AM)
Minimum temperature yesterday: 69 °F (at 11:56 AM)
Average temperature yesterday: 74 °F

High & Low Weather Summary for the Past Weeks

 TemperatureHumidityPressure
High91 °F (Apr 29, 12:53 PM)94% (Apr 24, 4:53 AM)30.11 "Hg (Apr 24, 4:53 AM)
Low62 °F (Apr 20, 3:53 AM)32% (Apr 20, 3:53 PM)29.64 "Hg (May 4, 6:53 PM)
Average77 °F69%29.95 "Hg
* Reported Apr 20 1:53 AM — May 5 1:53 AM, Sarasota, Weather by CustomWeather, © 2016

Note: Actual official high and low records may vary slightly from our data, if they occured in-between our weather recording intervals... More about our weather records

Advertising

Sarasota Weather History for the Previous 24 Hours

Scroll right to see more
 ConditionsComfort  
Time TempWeatherWind HumidityBarometerVisibility
1:53 AM
Thu, May 5
72 °FPassing clouds.15 mph66%29.75 "Hg10 mi
12:53 AM71 °FPassing clouds.15 mph71%29.75 "Hg10 mi
11:53 PM
Wed, May 4
71 °FClear.17 mph66%29.75 "Hg10 mi
10:53 PM72 °FPassing clouds.12 mph64%29.73 "Hg10 mi
9:53 PM72 °FClear.10 mph66%29.72 "Hg10 mi
8:53 PM73 °FScattered clouds.13 mph76%29.70 "Hg10 mi
7:53 PM74 °FScattered clouds.16 mph85%29.67 "Hg10 mi
6:53 PM76 °FMostly cloudy.13 mph85%29.64 "Hg10 mi
5:56 PM71 °FHeavy rain. Fog.No wind93%29.64 "Hg1 mi
4:53 PM73 °FOvercast.10 mph81%29.66 "Hg10 mi
3:53 PM75 °FPartly sunny.14 mph74%29.70 "Hg10 mi
2:53 PM73 °FLow clouds.15 mph84%29.76 "Hg10 mi
1:53 PM71 °FLight rain. Fog.15 mph87%29.77 "Hg6 mi
12:59 PM70 °FLight rain. Fog.9 mph90%29.84 "Hg6 mi
11:56 AM69 °FLight rain. Fog.13 mph93%29.83 "Hg3 mi
10:53 AM70 °FThunderstorms. Fog.9 mph90%29.83 "Hg5 mi
9:55 AM70 °FStrong thunderstorms. Fog.9 mph93%29.84 "Hg1 mi
9:00 AM71 °FStrong thunderstorms. Fog.18 mph90%29.83 "Hg2 mi
8:04 AM79 °FStrong thunderstorms. Low clouds.No wind84%29.80 "Hg4 mi
7:57 AM79 °FThunderstorms. Cloudy.8 mph84%29.80 "Hg4 mi
6:53 AM79 °FPassing clouds.10 mph84%29.78 "Hg10 mi
5:53 AM79 °FPassing clouds.10 mph82%29.80 "Hg10 mi
4:53 AM79 °FPartly cloudy.8 mph82%29.80 "Hg10 mi
3:53 AM79 °FPassing clouds.6 mph82%29.82 "Hg10 mi
Weather by CustomWeather, © 2016

See weather overviewHow to use our weather pages